Theta_e
317 313 313 310 308 306 306 306 307 307 306 306 306 305 305 304 305 304 303 302 303 303
314 312 309 307 306 305 306 306 306 305 305 305 305 305 304 302 302 302 302 302 302 302
310 308 306 305 305 304 305 305 304 304 304 304 304 303 303 302 302 301 301 302 302 302
306 306 305 303 304 305 304 304 305 305 303 302 302 302 302 301 301 301 301 302 302 302
302 303 302 303 304 303 304 305 304 303 301 301 301 301 301 300 301 301 301 302 302 302
302 302 302 302 303 304 303 303 302 301 300 300 301 301 301 301 302 303 304 303 302 303
302 302 302 304 303 302 302 301 301 301 301 301 301 302 301 302 305 306 304 304 304 304
304 305 305 303 302 301 301 300 301 301 300 301 301 302 301 304 304 303 304 306 308 308
304 305 306 304 302 301 301 300 301 300 301 300 301 300 302 305 304 303 303 303 305 307
306 305 306 305 303 301 300 301 300 300 301 300 301 300 300 304 304 303 302 303 304 304
305 304 305 305 304 304 305 304 301 301 301 301 301 299 299 301 304 304 303 303 303 304
305 304 304 303 302 303 304 306 305 303 302 301 300 299 298 301 303 303 303 303 304 302
305 305 302 305 303 304 303 304 306 306 303 302 300 298 297 298 303 302 302 303 304 302
306 306 304 305 302 301 300 304 302 306 307 303 300 300 297 297 303 304 303 302 302 302
Wind_Speed
9 7 8 10 9 9 9 9 13 12 12 15 14 13 13 11 10 11 10 13 12 10
10 11 10 12 10 9 11 10 12 14 13 14 14 13 13 10 13 11 11 12 13 11
11 12 11 10 11 12 12 13 14 14 14 14 14 14 14 11 12 12 10 9 11 11
12 11 10 10 11 11 13 14 14 14 14 14 15 14 13 14 15 14 13 11 12 13
12 11 11 11 12 12 13 13 13 13 14 14 14 14 13 14 14 14 14 11 10 11
10 10 11 11 12 12 13 13 13 13 14 14 14 14 13 13 14 13 10 8 9 9
10 10 10 10 10 11 12 13 14 13 13 13 14 13 13 13 11 9 6 7 9 8
8 9 8 8 8 9 10 11 13 13 14 13 12 10 14 11 10 9 9 8 5 6
8 9 8 6 6 7 9 10 13 15 14 14 10 21 21 17 9 11 10 9 8 6
7 9 8 5 4 5 7 6 11 13 13 14 14 22 21 20 11 11 11 11 9 8
7 9 9 11 7 9 5 4 5 8 8 11 11 22 21 19 11 10 12 11 11 11
10 11 10 9 9 11 11 7 5 5 6 8 11 16 18 15 10 10 11 10 10 9
8 9 10 9 7 9 11 9 7 2 4 4 8 13 18 12 5 9 8 9 11 17
6 6 8 7 9 10 11 9 11 7 3 8 9 14 18 15 8 6 4 4 5 5
Wind_Direction
344 338 339 355 343 321 316 323 313 310 311 303 297 294 289 288 283 275 260 261 256 266
351 1 351 347 329 321 315 314 314 307 305 303 298 294 290 285 283 274 270 265 259 255
357 358 343 331 328 321 318 318 307 305 304 305 303 300 294 284 280 273 264 263 260 251
352 345 341 332 331 331 318 310 312 318 320 314 310 307 300 290 284 275 265 251 251 254
347 348 341 335 331 316 320 320 330 331 320 316 308 305 301 297 291 283 272 259 250 255
353 345 341 330 320 340 337 335 328 328 320 316 316 311 305 301 297 294 295 258 257 255
346 336 322 338 342 342 338 338 336 329 325 324 321 318 320 313 322 312 291 268 262 253
328 319 325 335 336 338 340 342 341 339 338 336 333 337 338 340 341 343 349 345 295 251
325 324 317 300 307 323 338 349 348 348 347 345 347 345 351 358 359 3 1 4 2 356
325 329 340 351 302 321 314 338 353 347 348 353 358 355 359 2 7 14 14 15 18 21
344 330 357 357 354 333 300 330 328 322 337 347 355 1 360 356 8 17 15 21 16 32
358 358 2 345 3 333 328 317 261 309 326 356 6 1 354 355 3 9 7 5 18 16
5 2 341 342 353 349 340 334 326 320 355 13 2 4 1 351 347 1 4 8 8 11
27 350 322 3 18 354 344 342 333 2 113 48 21 6 0 352 338 345 342 358 352 345